Вернуться в каталог

STARLINK-36753

АктивенСвязьSSO
NORAD 67694·PAYLOAD·🇺🇸 United States

Запущен Feb 7, 2026 с Vandenberg Space Force Base

Loading…

Ближайшие Пролёты (ближайшие 24 часа)

TLE

СвежийSource: CelesTrak SupGP

Эпоха: Sep 14, 2026, 20:55 UTC

1 67694C 26025B   26257.87201389 -.00015723  00000+0 -48796-3 0  2570
2 67694  97.2856   7.7886 0001008 110.7883  89.6368 15.33454715    13

Отслеживайте STARLINK-36753 в реальном времени с AllMySat

Download on the App Store